Date String (YYYY-MM-DD hh:mm:ss) UTC,Instrument flags,Ambient pressure (hPa),Sample flow (lpm),Bypass flow (lpm),Sample temperature (°C),Ambient temperature (°C),ASC tube jacket temperature (°C),LED temperature (°C),Box temperature (°C),Sample RH (%),Span deviation,Mass concentration (μg/m³),Mass concentration (μg/m³),Mass concentration (μg/m³)
DateTimeUTC,F1_M11,P_M11,Q1_M11,Q2_M11,T1_M11,T2_M11,T3_M11,T4_M11,T5_M11,U1_M11,ZSPAN_M11,X0_M11,X2_M11,X1_M11
2023-04-09 20:00:00,,0835.3,5.00,0.00,27.0,25.7,00.0,35.2,28.6,11.6,0000.0,0009.93,0004.42,0003.59
2023-04-09 20:01:00,,0835.3,5.00,0.00,27.0,25.7,00.0,35.2,28.6,11.9,0000.0,0009.80,0004.39,0003.60
2023-04-09 20:02:00,,0835.3,5.00,0.00,27.0,25.7,00.0,35.3,28.6,11.9,0000.0,0010.17,0004.46,0003.60
2023-04-09 20:03:00,,0835.3,5.00,0.00,27.0,25.8,00.0,35.3,28.6,11.7,0000.0,0010.69,0004.49,0003.62
2023-04-09 20:04:00,,0835.4,4.99,0.00,27.0,25.8,00.0,35.3,28.6,11.7,0000.0,0010.79,0004.55,0003.62
2023-04-09 20:05:00,,0835.3,5.00,0.00,27.1,25.8,00.0,35.3,28.7,11.7,0000.0,0010.84,0004.57,0003.62
2023-04-09 20:06:00,,0835.3,5.00,0.00,27.1,25.8,00.0,35.3,28.7,11.7,0000.0,0010.07,0004.53,0003.61
2023-04-09 20:07:00,,0835.4,4.99,0.00,27.1,25.8,00.0,35.3,28.7,11.7,0000.0,0009.54,0004.50,0003.61
2023-04-09 20:08:00,,0835.3,5.00,0.00,27.1,25.8,00.0,35.3,28.7,11.5,0000.0,0009.65,0004.52,0003.62
2023-04-09 20:09:00,,0835.3,5.00,0.00,27.1,25.9,00.0,35.4,28.7,11.5,0000.0,0009.81,0004.54,0003.63
2023-04-09 20:10:00,,0835.2,5.00,0.00,27.1,25.9,00.0,35.4,28.7,11.4,0000.0,0009.82,0004.53,0003.64
2023-04-09 20:11:00,,0835.3,5.01,0.00,27.1,25.9,00.0,35.4,28.8,11.4,0000.0,0011.48,0004.59,0003.65
2023-04-09 20:12:00,,0835.3,5.00,0.00,27.2,25.9,00.0,35.4,28.8,11.6,0000.0,0012.73,0004.64,0003.66
2023-04-09 20:13:00,,0835.3,5.00,0.00,27.2,26.0,00.0,35.4,28.8,11.6,0000.0,0012.73,0004.63,0003.68
2023-04-09 20:14:00,,0835.2,5.00,0.00,27.2,26.0,00.0,35.4,28.8,11.4,0000.0,0012.01,0004.61,0003.68
2023-04-09 20:15:00,,0835.2,5.00,0.00,27.2,26.0,00.0,35.4,28.8,11.4,0000.0,0011.80,0004.57,0003.67
2023-04-09 20:16:00,,0835.3,5.01,0.00,27.2,26.0,00.0,35.5,28.8,11.5,0000.0,0011.67,0004.54,0003.68
2023-04-09 20:17:00,,0835.3,5.00,0.00,27.2,26.0,00.0,35.5,28.9,11.6,0000.0,0011.89,0004.57,0003.70
2023-04-09 20:18:00,,0835.3,5.01,0.00,27.3,26.0,00.0,35.5,28.9,11.4,0000.0,0012.69,0004.60,0003.69
2023-04-09 20:19:00,,0835.2,4.99,0.00,27.3,26.1,00.0,35.5,28.9,11.6,0000.0,0012.56,0004.64,0003.70
2023-04-09 20:20:00,,0835.2,5.00,0.00,27.3,26.1,00.0,35.5,28.9,11.9,0000.0,0012.95,0004.70,0003.74
2023-04-09 20:21:00,,0835.2,4.99,0.00,27.3,26.1,00.0,35.5,28.9,11.9,0000.0,0013.49,0004.72,0003.78
2023-04-09 20:22:00,,0835.1,5.00,0.00,27.3,26.1,00.0,35.5,28.9,11.7,0000.0,0013.88,0004.78,0003.81
2023-04-09 20:23:00,,0835.1,5.00,0.00,27.3,26.1,00.0,35.5,28.9,11.9,0000.0,0012.03,0004.80,0003.84
2023-04-09 20:24:00,,0835.1,5.00,0.00,27.3,26.1,00.0,35.6,28.9,11.9,0000.0,0012.01,0004.81,0003.85
2023-04-09 20:25:00,,0835.1,4.99,0.00,27.3,26.1,00.0,35.6,28.9,12.0,0000.0,0011.92,0004.80,0003.85
2023-04-09 20:26:00,,0835.2,4.99,0.00,27.3,26.1,00.0,35.6,29.0,11.9,0000.0,0012.17,0004.89,0003.87
2023-04-09 20:27:00,,0835.2,5.00,0.00,27.4,26.1,00.0,35.6,28.9,12.2,0000.0,0012.28,0004.91,0003.88
2023-04-09 20:28:00,,0835.2,5.01,0.00,27.4,26.1,00.0,35.6,28.9,11.9,0000.0,0012.22,0004.96,0003.90
2023-04-09 20:29:00,,0835.1,5.00,0.00,27.4,26.1,00.0,35.6,29.0,11.8,0000.0,0011.74,0005.03,0003.93
2023-04-09 20:30:00,,0835.1,5.00,0.00,27.4,26.1,00.0,35.6,29.0,11.6,0000.0,0011.84,0005.04,0003.95
2023-04-09 20:31:00,,0835.1,5.00,0.00,27.4,26.1,00.0,35.6,29.0,11.9,0000.0,0012.03,0005.02,0003.93
2023-04-09 20:32:00,,0835.1,5.01,0.00,27.4,26.1,00.0,35.7,29.0,11.7,0000.0,0011.96,0005.03,0003.91
2023-04-09 20:33:00,,0835.1,5.01,0.00,27.4,26.1,00.0,35.7,29.0,11.8,0000.0,0011.11,0005.01,0003.89
2023-04-09 20:34:00,,0835.0,5.00,0.00,27.4,26.1,00.0,35.7,28.9,11.6,0000.0,0011.67,0005.00,0003.84
2023-04-09 20:35:00,,0835.0,5.00,0.00,27.4,26.1,00.0,35.7,28.9,11.2,0000.0,0011.85,0004.94,0003.80
2023-04-09 20:36:00,,0835.1,5.00,0.00,27.4,26.1,00.0,35.7,29.0,11.4,0000.0,0011.87,0004.87,0003.77
2023-04-09 20:37:00,,0835.0,4.99,0.00,27.4,26.2,00.0,35.7,29.0,11.3,0000.0,0011.78,0004.74,0003.73
2023-04-09 20:38:00,,0835.0,5.00,0.00,27.5,26.2,00.0,35.7,29.0,11.1,0000.0,0011.77,0004.70,0003.68
2023-04-09 20:39:00,,0835.1,5.01,0.00,27.5,26.2,00.0,35.7,29.0,11.1,0000.0,0011.70,0004.61,0003.63
2023-04-09 20:40:00,,0835.0,5.01,0.00,27.5,26.2,00.0,35.7,29.1,11.3,0000.0,0011.61,0004.55,0003.59
2023-04-09 20:41:00,,0835.0,5.00,0.00,27.5,26.2,00.0,35.7,29.1,11.3,0000.0,0011.49,0004.50,0003.55
2023-04-09 20:42:00,,0835.0,5.00,0.00,27.5,26.2,00.0,35.8,29.1,10.8,0000.0,0010.98,0004.49,0003.52
2023-04-09 20:43:00,,0835.0,5.01,0.00,27.5,26.2,00.0,35.8,29.1,11.0,0000.0,0010.13,0004.44,0003.49
2023-04-09 20:44:00,,0835.0,5.01,0.00,27.5,26.2,00.0,35.8,29.1,10.7,0000.0,0009.94,0004.37,0003.45
2023-04-09 20:45:00,,0835.0,5.00,0.00,27.5,26.2,00.0,35.8,29.1,10.8,0000.0,0009.27,0004.34,0003.43
2023-04-09 20:46:00,,0835.0,5.00,0.00,27.5,26.3,00.0,35.8,29.1,10.8,0000.0,0009.00,0004.35,0003.42
2023-04-09 20:47:00,,0835.0,5.00,0.00,27.6,26.3,00.0,35.8,29.2,10.7,0000.0,0009.20,0004.38,0003.40
2023-04-09 20:48:00,,0835.0,5.00,0.00,27.6,26.3,00.0,35.8,29.2,10.6,0000.0,0009.07,0004.38,0003.38
2023-04-09 20:49:00,,0834.9,5.00,0.00,27.6,26.3,00.0,35.8,29.2,10.7,0000.0,0008.99,0004.38,0003.36
2023-04-09 20:50:00,,0834.9,5.00,0.00,27.6,26.3,00.0,35.9,29.2,10.4,0000.0,0008.85,0004.35,0003.34
2023-04-09 20:51:00,,0834.9,5.00,0.00,27.6,26.4,00.0,35.9,29.2,10.2,0000.0,0008.72,0004.28,0003.30
2023-04-09 20:52:00,,0835.0,5.00,0.00,27.6,26.4,00.0,35.9,29.2,10.2,0000.0,0008.69,0004.24,0003.26
2023-04-09 20:53:00,,0834.9,5.00,0.00,27.6,26.4,00.0,35.9,29.2,10.4,0000.0,0008.57,0004.17,0003.23
2023-04-09 20:54:00,,0835.0,5.00,0.00,27.6,26.4,00.0,35.9,29.3,10.2,0000.0,0008.63,0004.12,0003.19
2023-04-09 20:55:00,,0835.1,5.00,0.00,27.6,26.4,00.0,35.9,29.2,10.6,0000.0,0008.68,0004.11,0003.17
2023-04-09 20:56:00,,0835.3,4.99,0.00,27.7,26.4,00.0,35.9,29.2,10.6,0000.0,0008.87,0004.09,0003.15
2023-04-09 20:57:00,,0835.4,5.01,0.00,27.7,26.4,00.0,35.9,29.2,10.3,0000.0,0009.00,0004.08,0003.12
2023-04-09 20:58:00,,0835.3,5.01,0.00,27.7,26.4,00.0,35.9,29.2,10.3,0000.0,0008.67,0004.03,0003.11
2023-04-09 20:59:00,,0835.4,5.01,0.00,27.7,26.4,00.0,35.9,29.2,10.3,0000.0,0008.50,0004.02,0003.11
